RH
97 97 94 92 91 82 70 60 52 45 40 35 33 34 37 39 40 40 41 48 56 60 65 68 67 63 56 56 48 45 44 41 46 44 40 40 34 31 37 46 50 54 51
94 96 93 89 81 67 57 51 46 40 36 34 32 35 39 40 41 40 40 48 54 58 64 67 67 66 63 61 62 58 44 38 53 59 57 52 38 34 36 40 49 52 49
93 92 93 86 66 52 48 45 41 37 34 30 30 34 37 40 41 40 42 46 52 56 59 63 65 68 71 74 69 63 48 28 50 59 43 52 48 35 32 35 40 46 50
92 91 87 72 49 45 44 42 38 35 31 33 35 37 37 38 41 43 42 45 50 58 58 62 66 68 70 76 80 68 58 43 31 54 61 60 54 36 41 40 45 42 41
84 83 76 56 40 39 40 38 36 33 35 41 43 44 43 41 41 43 40 43 49 51 51 54 58 64 68 75 81 88 76 70 42 33 55 53 54 38 42 48 47 48 45
77 74 60 43 38 38 39 38 37 38 40 46 49 53 50 49 49 49 44 47 52 49 48 50 52 57 64 71 80 81 75 75 68 41 36 48 56 45 41 42 44 44 50
72 66 48 39 38 40 39 39 42 43 47 53 56 57 56 56 59 60 61 60 62 58 58 60 64 65 65 66 64 63 63 73 69 50 33 45 52 44 50 49 43 41 41
66 56 45 39 40 41 40 42 44 46 54 57 60 58 56 58 58 60 59 59 59 59 61 63 63 58 49 45 46 46 46 48 66 62 31 37 46 55 42 40 35 35 37
60 50 43 40 40 40 42 46 47 49 56 58 60 56 53 52 50 48 48 50 49 45 48 46 45 42 42 37 38 40 43 72 71 67 36 35 40 55 42 34 34 35 33
55 47 42 40 38 41 44 48 47 49 52 51 51 53 52 50 48 42 42 42 46 45 45 48 42 41 41 38 40 41 38 64 71 69 60 38 42 42 36 33 36 35 34
52 45 40 37 37 40 42 45 46 45 45 47 49 55 55 54 53 48 43 40 42 43 44 44 40 38 34 33 37 41 36 39 63 69 70 60 51 46 42 38 37 39 37
48 43 38 36 37 39 41 41 41 43 45 49 56 61 61 58 58 53 46 42 41 41 41 42 40 39 35 30 27 30 35 35 35 51 62 72 65 52 43 46 44 39 40
45 41 37 38 38 38 39 40 40 46 48 52 53 57 59 61 60 56 49 45 42 42 43 44 44 44 36 33 28 22 27 32 33 30 50 62 74 65 49 50 48 53 48
40 37 35 36 38 37 37 37 40 42 45 47 48 55 57 55 50 50 50 44 47 49 51 48 52 46 44 38 31 28 29 32 31 30 33 50 67 83 68 50 44 47 56
37 36 35 36 37 37 37 36 37 40 43 45 45 50 48 49 48 49 51 51 52 54 58 53 58 46 44 42 41 32 29 32 32 32 31 47 56 75 82 69 56 49 46
37 35 34 36 37 36 37 36 36 37 38 40 42 47 50 48 52 51 51 52 54 53 51 50 47 44 41 40 40 34 27 31 30 27 32 41 48 54 71 80 78 67 59
38 36 34 35 34 35 35 36 37 37 38 39 44 47 49 52 52 52 54 52 47 47 47 44 43 44 37 36 34 33 29 34 29 26 30 38 45 44 50 63 70 73 69
37 34 35 34 33 33 34 34 34 35 37 42 45 46 47 51 51 51 53 47 44 42 41 39 42 39 33 35 33 33 30 34 38 31 29 32 37 43 42 45 54 59 61
35 34 32 33 33 33 33 32 31 32 33 41 42 44 48 49 52 56 51 45 44 37 35 37 35 35 30 34 35 34 30 34 42 33 31 30 32 33 39 41 44 46 52
35 33 31 32 33 32 31 31 29 29 32 36 42 47 47 49 52 56 51 43 41 36 35 36 39 47 47 41 36 26 30 36 37 35 33 29 33 32 31 32 40 43 44
35 34 30 29 27 26 26 25 26 27 31 34 38 44 45 46 47 49 51 43 38 34 39 48 51 49 47 41 36 37 36 34 35 36 33 33 28 27 26 25 28 31 32
31 29 28 25 23 24 27 28 28 32 32 34 38 41 40 41 42 42 43 43 36 36 46 51 52 49 50 39 42 42 42 36 33 33 34 31 30 29 27 22 25 29 36
27 27 25 25 24 24 31 33 29 29 33 33 36 38 39 39 40 41 41 36 34 42 52 50 49 49 47 42 46 48 46 43 39 36 34 31 31 30 29 29 29 27 25
22 23 25 27 26 26 27 30 28 28 32 32 32 35 38 37 37 40 40 32 36 50 52 49 48 48 48 46 49 52 54 55 53 52 44 42 38 37 35 34 36 37 36
22 21 22 25 25 26 25 26 28 27 30 34 33 30 32 35 36 37 37 33 41 51 52 50 47 48 49 46 49 48 48 51 53 55 55 52 49 47 47 46 46 45 45
25 23 23 24 23 23 23 24 27 28 32 34 32 30 32 34 32 33 34 35 45 50 52 48 46 47 47 43 46 47 48 48 50 53 53 51 51 50 48 50 52 51 53